Powrót do katalogu

ARIANE 2 DEB

LostGTO
NORAD 33562·DEBRIS·🇫🇷 France

Wystrzelony Jan 27, 1989 z Guiana Space Centre

Loading…

TLE

NieaktualneSource: Space-Track

Epoka: Apr 2, 2024, 18:41 UTC

1 33562U 89006BE  24093.77881469 -.00000401  00000-0 -23277-1 0  9999
2 33562   8.6522  18.1839 7042346 213.9249  68.9676  2.23500518146863

Śledź ARIANE 2 DEB w czasie rzeczywistym z AllMySat

Download on the App Store